Time,TemperatureF,DewpointF,PressureIn,WindDirection,WindDirectionDegrees,WindSpeedMPH,WindSpeedGustMPH,Humidity,HourlyPrecipIn,Conditions,Clouds,dailyrainin,SoftwareType,DateUTC
2013-06-09 00:00:00,69.2,57.4,29.69,North,0,0.0,1.0,66,0.00,,CLR,0.00,VWS V14.00,2013-06-09 07:00:00,
2013-06-09 00:02:00,69.0,57.2,29.69,North,0,0.0,0.0,66,0.00,,CLR,0.00,VWS V14.00,2013-06-09 07:02:00,
2013-06-09 00:07:00,69.0,57.6,29.69,North,0,0.0,0.0,67,0.00,,CLR,0.00,VWS V14.00,2013-06-09 07:07:00,
2013-06-09 00:12:00,68.9,57.5,29.69,North,0,0.0,1.0,67,0.00,,CLR,0.00,VWS V14.00,2013-06-09 07:12:00,
2013-06-09 00:17:00,68.4,57.0,29.69,North,0,0.0,1.0,67,0.00,,CLR,0.00,VWS V14.00,2013-06-09 07:17:00,
2013-06-09 00:22:00,68.3,57.3,29.69,North,0,0.0,1.0,68,0.00,,CLR,0.00,VWS V14.00,2013-06-09 07:22:00,
2013-06-09 00:27:00,68.1,57.2,29.69,North,0,0.0,1.0,68,0.00,,CLR,0.00,VWS V14.00,2013-06-09 07:27:00,
2013-06-09 00:30:00,68.0,57.1,29.69,North,0,0.0,1.0,68,0.00,,CLR,0.00,VWS V14.00,2013-06-09 07:30:00,
2013-06-09 00:32:00,68.3,57.8,29.69,North,0,0.0,0.0,69,0.00,,CLR,0.00,VWS V14.00,2013-06-09 07:32:00,
2013-06-09 00:37:00,68.0,57.1,29.69,North,0,0.0,0.0,68,0.00,,CLR,0.00,VWS V14.00,2013-06-09 07:37:00,
2013-06-09 00:42:00,67.8,57.3,29.69,North,0,0.0,1.0,69,0.00,,CLR,0.00,VWS V14.00,2013-06-09 07:42:00,
2013-06-09 00:47:00,68.0,57.5,29.68,North,0,0.0,1.0,69,0.00,,CLR,0.00,VWS V14.00,2013-06-09 07:47:00,
2013-06-09 00:52:00,67.6,57.1,29.68,North,0,0.0,1.0,69,0.00,,CLR,0.00,VWS V14.00,2013-06-09 07:52:00,
2013-06-09 00:57:00,67.3,57.2,29.69,North,0,0.0,1.0,70,0.00,,CLR,0.00,VWS V14.00,2013-06-09 07:57:00,
2013-06-09 01:00:00,67.3,56.8,29.68,North,0,0.0,1.0,69,0.00,,CLR,0.00,VWS V14.00,2013-06-09 08:00:00,
2013-06-09 01:02:00,67.5,57.4,29.68,North,0,0.0,0.0,70,0.00,,CLR,0.00,VWS V14.00,2013-06-09 08:02:00,
2013-06-09 01:07:00,67.1,57.0,29.68,North,357,0.0,1.0,70,0.00,,CLR,0.00,VWS V14.00,2013-06-09 08:07:00,
2013-06-09 01:12:00,67.2,57.1,29.69,North,357,0.0,1.0,70,0.00,,CLR,0.00,VWS V14.00,2013-06-09 08:12:00,
2013-06-09 01:17:00,66.9,56.8,29.69,North,355,0.0,1.0,70,0.00,,CLR,0.00,VWS V14.00,2013-06-09 08:17:00,
2013-06-09 01:22:00,67.0,57.3,29.69,North,355,0.0,1.0,71,0.00,,CLR,0.00,VWS V14.00,2013-06-09 08:22:00,
2013-06-09 01:27:00,66.9,57.2,29.69,North,355,0.0,1.0,71,0.00,,CLR,0.00,VWS V14.00,2013-06-09 08:27:00,
2013-06-09 01:30:00,66.7,57.4,29.69,North,355,0.0,1.0,72,0.00,,CLR,0.00,VWS V14.00,2013-06-09 08:30:00,
2013-06-09 01:32:00,66.6,56.9,29.69,North,355,1.0,1.0,71,0.00,,CLR,0.00,VWS V14.00,2013-06-09 08:32:00,
2013-06-09 01:37:00,66.4,57.1,29.69,North,355,0.0,1.0,72,0.00,,CLR,0.00,VWS V14.00,2013-06-09 08:37:00,
2013-06-09 01:42:00,66.7,57.4,29.69,North,356,0.0,1.0,72,0.00,,CLR,0.00,VWS V14.00,2013-06-09 08:42:00,
2013-06-09 01:47:00,66.4,57.1,29.69,North,357,0.0,1.0,72,0.00,,CLR,0.00,VWS V14.00,2013-06-09 08:47:00,
2013-06-09 01:52:00,66.5,57.2,29.69,North,351,0.0,1.0,72,0.00,,CLR,0.00,VWS V14.00,2013-06-09 08:52:00,
2013-06-09 01:57:00,66.3,57.0,29.69,North,351,0.0,1.0,72,0.00,,CLR,0.00,VWS V14.00,2013-06-09 08:57:00,
2013-06-09 02:00:00,66.3,57.0,29.69,North,351,0.0,1.0,72,0.00,,CLR,0.00,VWS V14.00,2013-06-09 09:00:00,
2013-06-09 02:02:00,66.0,56.7,29.69,North,351,0.0,0.0,72,0.00,,CLR,0.00,VWS V14.00,2013-06-09 09:02:00,
2013-06-09 02:07:00,66.0,56.7,29.69,North,351,0.0,0.0,72,0.00,,CLR,0.00,VWS V14.00,2013-06-09 09:07:00,
2013-06-09 02:12:00,66.0,56.7,29.70,NNE,14,0.0,2.0,72,0.00,,CLR,0.00,VWS V14.00,2013-06-09 09:12:00,
2013-06-09 02:17:00,65.7,56.8,29.70,NNE,14,0.0,2.0,73,0.00,,CLR,0.00,VWS V14.00,2013-06-09 09:17:00,
2013-06-09 02:22:00,65.9,57.0,29.69,NNE,14,0.0,2.0,73,0.00,,CLR,0.00,VWS V14.00,2013-06-09 09:22:00,
2013-06-09 02:27:00,65.7,56.8,29.69,NNE,14,0.0,2.0,73,0.00,,CLR,0.00,VWS V14.00,2013-06-09 09:27:00,
2013-06-09 02:30:00,65.4,56.9,29.69,NNE,14,0.0,2.0,74,0.00,,CLR,0.00,VWS V14.00,2013-06-09 09:30:00,
2013-06-09 02:32:00,65.4,56.9,29.70,NNE,14,0.0,0.0,74,0.00,,CLR,0.00,VWS V14.00,2013-06-09 09:32:00,
2013-06-09 02:37:00,65.6,57.1,29.69,NNE,14,0.0,0.0,74,0.00,,CLR,0.00,VWS V14.00,2013-06-09 09:37:00,
2013-06-09 02:42:00,65.3,56.8,29.69,North,7,0.0,1.0,74,0.00,,CLR,0.00,VWS V14.00,2013-06-09 09:42:00,
2013-06-09 02:47:00,65.1,56.6,29.69,North,0,0.0,1.0,74,0.00,,CLR,0.00,VWS V14.00,2013-06-09 09:47:00,
2013-06-09 02:52:00,64.9,56.4,29.69,North,0,0.0,1.0,74,0.00,,CLR,0.00,VWS V14.00,2013-06-09 09:52:00,
2013-06-09 02:57:00,64.7,56.2,29.69,North,0,0.0,1.0,74,0.00,,CLR,0.00,VWS V14.00,2013-06-09 09:57:00,
2013-06-09 03:00:00,64.7,56.6,29.69,North,0,0.0,1.0,75,0.00,,CLR,0.00,VWS V14.00,2013-06-09 10:00:00,
2013-06-09 03:02:00,64.7,56.2,29.69,North,0,0.0,0.0,74,0.00,,CLR,0.00,VWS V14.00,2013-06-09 10:02:00,
2013-06-09 03:07:00,64.7,56.6,29.69,North,0,0.0,0.0,75,0.00,,CLR,0.00,VWS V14.00,2013-06-09 10:07:00,
2013-06-09 03:12:00,64.6,56.5,29.69,North,0,0.0,0.0,75,0.00,,CLR,0.00,VWS V14.00,2013-06-09 10:12:00,
2013-06-09 03:17:00,64.5,56.4,29.69,North,0,0.0,0.0,75,0.00,,CLR,0.00,VWS V14.00,2013-06-09 10:17:00,
2013-06-09 03:22:00,64.3,56.6,29.69,North,0,0.0,0.0,76,0.00,,CLR,0.00,VWS V14.00,2013-06-09 10:22:00,
2013-06-09 03:27:00,64.4,56.3,29.69,North,0,0.0,0.0,75,0.00,,CLR,0.00,VWS V14.00,2013-06-09 10:27:00,
2013-06-09 03:30:00,64.3,56.6,29.69,North,0,0.0,0.0,76,0.00,,CLR,0.00,VWS V14.00,2013-06-09 10:30:00,
2013-06-09 03:32:00,64.0,56.3,29.69,North,0,0.0,0.0,76,0.00,,CLR,0.00,VWS V14.00,2013-06-09 10:32:00,
2013-06-09 03:37:00,64.2,56.5,29.69,North,0,0.0,0.0,76,0.00,,CLR,0.00,VWS V14.00,2013-06-09 10:37:00,
2013-06-09 03:42:00,64.1,56.4,29.69,North,0,0.0,1.0,76,0.00,,CLR,0.00,VWS V14.00,2013-06-09 10:42:00,
2013-06-09 03:47:00,63.9,56.2,29.69,North,0,0.0,1.0,76,0.00,,CLR,0.00,VWS V14.00,2013-06-09 10:47:00,
2013-06-09 03:52:00,64.0,56.3,29.70,North,0,0.0,1.0,76,0.00,,CLR,0.00,VWS V14.00,2013-06-09 10:52:00,
2013-06-09 03:57:00,64.0,56.7,29.69,North,0,0.0,1.0,77,0.00,,CLR,0.00,VWS V14.00,2013-06-09 10:57:00,
2013-06-09 04:00:00,63.8,56.5,29.69,North,0,0.0,1.0,77,0.00,,CLR,0.00,VWS V14.00,2013-06-09 11:00:00,
2013-06-09 04:02:00,63.7,56.4,29.69,North,0,0.0,0.0,77,0.00,,CLR,0.00,VWS V14.00,2013-06-09 11:02:00,
2013-06-09 04:07:00,63.5,56.9,29.69,North,0,0.0,0.0,79,0.00,,CLR,0.00,VWS V14.00,2013-06-09 11:07:00,
2013-06-09 04:12:00,63.5,56.9,29.69,North,0,0.0,0.0,79,0.00,,CLR,0.00,VWS V14.00,2013-06-09 11:12:00,
2013-06-09 04:17:00,63.4,56.8,29.69,North,0,0.0,0.0,79,0.00,,CLR,0.00,VWS V14.00,2013-06-09 11:17:00,
2013-06-09 04:22:00,63.3,57.0,29.69,North,0,0.0,0.0,80,0.00,,CLR,0.00,VWS V14.00,2013-06-09 11:22:00,
2013-06-09 04:27:00,63.4,56.8,29.69,North,0,0.0,0.0,79,0.00,,CLR,0.00,VWS V14.00,2013-06-09 11:27:00,
2013-06-09 04:30:00,63.4,57.1,29.69,North,0,0.0,1.0,80,0.00,,CLR,0.00,VWS V14.00,2013-06-09 11:30:00,
2013-06-09 04:32:00,63.5,57.2,29.69,North,0,0.0,1.0,80,0.00,,CLR,0.00,VWS V14.00,2013-06-09 11:32:00,
2013-06-09 04:37:00,63.1,56.8,29.70,North,0,0.0,1.0,80,0.00,,CLR,0.00,VWS V14.00,2013-06-09 11:37:00,
2013-06-09 04:42:00,63.3,57.0,29.69,NNW,328,0.0,1.0,80,0.00,,CLR,0.00,VWS V14.00,2013-06-09 11:42:00,
2013-06-09 04:47:00,63.0,56.7,29.69,North,0,2.0,2.0,80,0.00,,CLR,0.00,VWS V14.00,2013-06-09 11:47:00,
2013-06-09 04:52:00,62.8,56.5,29.69,North,0,0.0,2.0,80,0.00,,CLR,0.00,VWS V14.00,2013-06-09 11:52:00,
2013-06-09 04:57:00,62.5,56.6,29.70,North,0,0.0,2.0,81,0.00,,CLR,0.00,VWS V14.00,2013-06-09 11:57:00,
2013-06-09 05:00:00,62.7,56.8,29.70,North,0,0.0,2.0,81,0.00,,CLR,0.00,VWS V14.00,2013-06-09 12:00:00,
2013-06-09 05:02:00,62.4,56.5,29.70,SW,230,1.0,2.0,81,0.00,,CLR,0.00,VWS V14.00,2013-06-09 12:02:00,
2013-06-09 05:07:00,62.4,56.5,29.70,North,1,0.0,2.0,81,0.00,,CLR,0.00,VWS V14.00,2013-06-09 12:07:00,
2013-06-09 05:12:00,62.5,56.6,29.70,NNW,332,0.0,3.0,81,0.00,,CLR,0.00,VWS V14.00,2013-06-09 12:12:00,
2013-06-09 05:17:00,62.3,56.4,29.70,North,0,0.0,3.0,81,0.00,,CLR,0.00,VWS V14.00,2013-06-09 12:17:00,
2013-06-09 05:22:00,62.1,56.2,29.70,North,0,0.0,3.0,81,0.00,,CLR,0.00,VWS V14.00,2013-06-09 12:22:00,
2013-06-09 05:27:00,61.8,56.2,29.71,North,349,0.0,3.0,82,0.00,,CLR,0.00,VWS V14.00,2013-06-09 12:27:00,
2013-06-09 05:30:00,62.1,56.5,29.71,North,0,0.0,3.0,82,0.00,,CLR,0.00,VWS V14.00,2013-06-09 12:30:00,
2013-06-09 05:32:00,61.8,56.2,29.70,North,0,0.0,0.0,82,0.00,,CLR,0.00,VWS V14.00,2013-06-09 12:32:00,
2013-06-09 05:37:00,61.5,56.0,29.71,NW,313,0.0,2.0,82,0.00,,CLR,0.00,VWS V14.00,2013-06-09 12:37:00,
2013-06-09 05:42:00,61.6,56.1,29.71,NW,325,0.0,4.0,82,0.00,,CLR,0.00,VWS V14.00,2013-06-09 12:42:00,
2013-06-09 05:47:00,61.5,56.3,29.71,North,353,0.0,4.0,83,0.00,,CLR,0.00,VWS V14.00,2013-06-09 12:47:00,
2013-06-09 05:52:00,61.1,55.9,29.71,North,356,0.0,4.0,83,0.00,,CLR,0.00,VWS V14.00,2013-06-09 12:52:00,
2013-06-09 05:57:00,61.4,56.2,29.72,North,2,0.0,4.0,83,0.00,,CLR,0.00,VWS V14.00,2013-06-09 12:57:00,
2013-06-09 06:00:00,61.1,55.9,29.72,NNW,331,0.0,4.0,83,0.00,,CLR,0.00,VWS V14.00,2013-06-09 13:00:00,
2013-06-09 06:02:00,61.3,56.4,29.71,NNW,331,0.0,0.0,84,0.00,,CLR,0.00,VWS V14.00,2013-06-09 13:02:00,
2013-06-09 06:07:00,61.0,56.1,29.72,North,359,0.0,4.0,84,0.00,,CLR,0.00,VWS V14.00,2013-06-09 13:07:00,
2013-06-09 06:12:00,60.8,56.3,29.72,North,358,0.0,4.0,85,0.00,,CLR,0.00,VWS V14.00,2013-06-09 13:12:00,
2013-06-09 06:17:00,60.4,55.9,29.72,North,2,0.0,4.0,85,0.00,,CLR,0.00,VWS V14.00,2013-06-09 13:17:00,
2013-06-09 06:22:00,60.2,55.7,29.73,West,265,0.0,4.0,85,0.00,,CLR,0.00,VWS V14.00,2013-06-09 13:22:00,
2013-06-09 06:27:00,60.4,56.2,29.73,North,0,0.0,4.0,86,0.00,,CLR,0.00,VWS V14.00,2013-06-09 13:27:00,
2013-06-09 06:30:00,60.4,56.2,29.73,North,358,0.0,4.0,86,0.00,,CLR,0.00,VWS V14.00,2013-06-09 13:30:00,
2013-06-09 06:32:00,60.2,56.0,29.73,North,0,0.0,2.0,86,0.00,,CLR,0.00,VWS V14.00,2013-06-09 13:32:00,
2013-06-09 06:37:00,60.2,56.0,29.73,NNW,340,0.0,2.0,86,0.00,,CLR,0.00,VWS V14.00,2013-06-09 13:37:00,
2013-06-09 06:42:00,60.3,56.1,29.73,NW,313,0.0,6.0,86,0.00,,CLR,0.00,VWS V14.00,2013-06-09 13:42:00,
2013-06-09 06:47:00,60.1,55.9,29.74,NNW,345,0.0,6.0,86,0.00,,CLR,0.00,VWS V14.00,2013-06-09 13:47:00,
2013-06-09 06:52:00,60.3,56.4,29.74,NNW,346,3.0,6.0,87,0.00,,CLR,0.00,VWS V14.00,2013-06-09 13:52:00,
2013-06-09 06:57:00,60.3,56.4,29.74,North,351,0.0,6.0,87,0.00,,CLR,0.00,VWS V14.00,2013-06-09 13:57:00,
2013-06-09 07:00:00,60.3,56.4,29.74,North,0,0.0,6.0,87,0.00,,CLR,0.00,VWS V14.00,2013-06-09 14:00:00,
2013-06-09 07:02:00,60.2,56.3,29.74,North,357,0.0,1.0,87,0.00,,CLR,0.00,VWS V14.00,2013-06-09 14:02:00,
2013-06-09 07:07:00,60.2,56.3,29.74,North,0,0.0,2.0,87,0.00,,CLR,0.00,VWS V14.00,2013-06-09 14:07:00,
2013-06-09 07:12:00,60.4,56.2,29.74,North,359,0.0,2.0,86,0.00,,CLR,0.00,VWS V14.00,2013-06-09 14:12:00,
2013-06-09 07:17:00,60.7,56.5,29.74,NNW,330,0.0,4.0,86,0.00,,CLR,0.00,VWS V14.00,2013-06-09 14:17:00,
2013-06-09 07:22:00,60.8,56.6,29.74,NNW,343,0.0,4.0,86,0.00,,CLR,0.00,VWS V14.00,2013-06-09 14:22:00,
2013-06-09 07:27:00,60.7,56.8,29.74,North,3,1.0,8.0,87,0.00,,CLR,0.00,VWS V14.00,2013-06-09 14:27:00,
2013-06-09 07:30:00,60.9,56.7,29.74,NNW,345,2.0,8.0,86,0.00,,CLR,0.00,VWS V14.00,2013-06-09 14:30:00,
2013-06-09 07:32:00,60.9,57.0,29.74,North,357,0.0,2.0,87,0.00,,CLR,0.00,VWS V14.00,2013-06-09 14:32:00,
2013-06-09 07:37:00,61.3,57.1,29.74,South,181,1.0,2.0,86,0.00,,CLR,0.00,VWS V14.00,2013-06-09 14:37:00,
2013-06-09 07:42:00,61.1,56.9,29.74,North,2,0.0,5.0,86,0.00,,CLR,0.00,VWS V14.00,2013-06-09 14:42:00,
2013-06-09 07:47:00,61.0,56.8,29.74,North,356,0.0,8.0,86,0.00,,SCT010,0.00,VWS V14.00,2013-06-09 14:47:00,
2013-06-09 07:52:00,61.4,56.9,29.74,NNW,346,1.0,8.0,85,0.00,,SCT010,0.00,VWS V14.00,2013-06-09 14:52:00,
2013-06-09 07:57:00,61.4,56.9,29.74,NNW,340,0.0,8.0,85,0.00,,SCT010,0.00,VWS V14.00,2013-06-09 14:57:00,
2013-06-09 08:00:00,61.4,56.9,29.74,NNE,15,1.0,8.0,85,0.00,,CLR,0.00,VWS V14.00,2013-06-09 15:00:00,
2013-06-09 08:02:00,61.7,57.2,29.74,West,270,1.0,3.0,85,0.00,,SCT010,0.00,VWS V14.00,2013-06-09 15:02:00,
2013-06-09 08:07:00,61.8,57.2,29.75,NNW,328,0.0,3.0,85,0.00,,SCT010,0.00,VWS V14.00,2013-06-09 15:07:00,
2013-06-09 08:12:00,61.6,57.0,29.75,NNW,335,1.0,5.0,85,0.00,,SCT010,0.00,VWS V14.00,2013-06-09 15:12:00,
2013-06-09 08:17:00,62.1,57.2,29.74,North,359,0.0,7.0,84,0.00,,SCT010,0.00,VWS V14.00,2013-06-09 15:17:00,
2013-06-09 08:22:00,62.0,57.1,29.74,NE,48,0.0,7.0,84,0.00,,SCT010,0.00,VWS V14.00,2013-06-09 15:22:00,
2013-06-09 08:27:00,62.4,57.5,29.75,NW,326,0.0,7.0,84,0.00,,SCT010,0.00,VWS V14.00,2013-06-09 15:27:00,
2013-06-09 08:30:00,62.5,57.6,29.75,North,352,0.0,7.0,84,0.00,,CLR,0.00,VWS V14.00,2013-06-09 15:30:00,
2013-06-09 08:32:00,62.7,57.5,29.75,NW,326,1.0,5.0,83,0.00,,SCT010,0.00,VWS V14.00,2013-06-09 15:32:00,
2013-06-09 08:37:00,62.9,57.3,29.75,North,350,2.0,8.0,82,0.00,,SCT010,0.00,VWS V14.00,2013-06-09 15:37:00,
2013-06-09 08:42:00,63.2,58.0,29.75,NW,307,1.0,8.0,83,0.00,,SCT010,0.00,VWS V14.00,2013-06-09 15:42:00,
2013-06-09 08:47:00,63.5,57.6,29.75,North,353,4.0,8.0,81,0.00,,CLR,0.00,VWS V14.00,2013-06-09 15:47:00,
2013-06-09 08:52:00,63.6,57.7,29.75,North,359,0.0,8.0,81,0.00,,CLR,0.00,VWS V14.00,2013-06-09 15:52:00,
2013-06-09 08:57:00,64.2,57.9,29.75,SW,225,0.0,8.0,80,0.00,,CLR,0.00,VWS V14.00,2013-06-09 15:57:00,
2013-06-09 09:00:00,64.6,58.7,29.74,WNW,300,0.0,8.0,81,0.00,,CLR,0.00,VWS V14.00,2013-06-09 16:00:00,
2013-06-09 09:02:00,64.4,58.1,29.74,NW,326,0.0,3.0,80,0.00,,CLR,0.00,VWS V14.00,2013-06-09 16:02:00,
2013-06-09 09:07:00,64.9,58.9,29.75,NW,319,0.0,4.0,81,0.00,,CLR,0.00,VWS V14.00,2013-06-09 16:07:00,
2013-06-09 09:12:00,65.1,59.1,29.75,NNW,337,0.0,4.0,81,0.00,,CLR,0.00,VWS V14.00,2013-06-09 16:12:00,
2013-06-09 09:17:00,65.3,59.0,29.75,NNW,331,0.0,4.0,80,0.00,,CLR,0.00,VWS V14.00,2013-06-09 16:17:00,
2013-06-09 09:22:00,65.4,58.7,29.75,WNW,290,0.0,4.0,79,0.00,,CLR,0.00,VWS V14.00,2013-06-09 16:22:00,
2013-06-09 09:27:00,66.2,59.2,29.75,WNW,295,0.0,7.0,78,0.00,,CLR,0.00,VWS V14.00,2013-06-09 16:27:00,
2013-06-09 09:30:00,66.1,58.7,29.76,North,9,0.0,7.0,77,0.00,,CLR,0.00,VWS V14.00,2013-06-09 16:30:00,
2013-06-09 09:32:00,66.4,59.0,29.75,NW,312,0.0,7.0,77,0.00,,CLR,0.00,VWS V14.00,2013-06-09 16:32:00,
2013-06-09 09:37:00,66.6,59.2,29.75,NNW,329,2.0,7.0,77,0.00,,CLR,0.00,VWS V14.00,2013-06-09 16:37:00,
2013-06-09 09:42:00,66.9,59.1,29.75,WNW,289,1.0,7.0,76,0.00,,CLR,0.00,VWS V14.00,2013-06-09 16:42:00,
2013-06-09 09:47:00,66.7,58.9,29.75,NNW,340,0.0,7.0,76,0.00,,CLR,0.00,VWS V14.00,2013-06-09 16:47:00,
2013-06-09 09:52:00,67.4,59.6,29.75,North,349,1.0,7.0,76,0.00,,CLR,0.00,VWS V14.00,2013-06-09 16:52:00,
2013-06-09 09:57:00,67.7,59.5,29.75,NNE,16,3.0,7.0,75,0.00,,CLR,0.00,VWS V14.00,2013-06-09 16:57:00,
2013-06-09 10:00:00,67.8,59.6,29.75,NNE,31,0.0,7.0,75,0.00,,CLR,0.00,VWS V14.00,2013-06-09 17:00:00,
2013-06-09 10:02:00,68.2,59.6,29.74,North,0,0.0,1.0,74,0.00,,CLR,0.00,VWS V14.00,2013-06-09 17:02:00,
2013-06-09 10:07:00,68.1,59.1,29.74,North,10,0.0,5.0,73,0.00,,CLR,0.00,VWS V14.00,2013-06-09 17:07:00,
2013-06-09 10:12:00,68.4,59.8,29.75,NNW,345,0.0,5.0,74,0.00,,CLR,0.00,VWS V14.00,2013-06-09 17:12:00,
2013-06-09 10:17:00,68.4,60.2,29.75,North,10,0.0,5.0,75,0.00,,CLR,0.00,VWS V14.00,2013-06-09 17:17:00,
2013-06-09 10:22:00,68.5,60.3,29.75,NNW,341,3.0,5.0,75,0.00,,CLR,0.00,VWS V14.00,2013-06-09 17:22:00,
2013-06-09 10:27:00,69.1,61.2,29.74,North,0,0.0,5.0,76,0.00,,CLR,0.00,VWS V14.00,2013-06-09 17:27:00,
2013-06-09 10:30:00,69.1,60.1,29.75,North,353,0.0,5.0,73,0.00,,CLR,0.00,VWS V14.00,2013-06-09 17:30:00,
2013-06-09 10:32:00,69.4,60.8,29.74,NW,308,0.0,2.0,74,0.00,,CLR,0.00,VWS V14.00,2013-06-09 17:32:00,
2013-06-09 10:37:00,70.0,60.6,29.75,NNW,344,1.0,4.0,72,0.00,,CLR,0.00,VWS V14.00,2013-06-09 17:37:00,
2013-06-09 10:42:00,70.3,60.9,29.75,North,351,0.0,5.0,72,0.00,,CLR,0.00,VWS V14.00,2013-06-09 17:42:00,
2013-06-09 10:47:00,70.9,60.6,29.74,North,4,0.0,8.0,70,0.00,,CLR,0.00,VWS V14.00,2013-06-09 17:47:00,
2013-06-09 10:52:00,71.3,61.0,29.74,NNW,348,0.0,8.0,70,0.00,,CLR,0.00,VWS V14.00,2013-06-09 17:52:00,
2013-06-09 10:57:00,71.5,60.8,29.74,North,0,0.0,8.0,69,0.00,,CLR,0.00,VWS V14.00,2013-06-09 17:57:00,
2013-06-09 11:00:00,72.0,60.9,29.74,NE,56,0.0,8.0,68,0.00,,CLR,0.00,VWS V14.00,2013-06-09 18:00:00,
2013-06-09 11:02:00,72.4,60.8,29.75,NNW,334,0.0,3.0,67,0.00,,CLR,0.00,VWS V14.00,2013-06-09 18:02:00,
2013-06-09 11:07:00,72.9,61.7,29.75,SW,214,0.0,3.0,68,0.00,,CLR,0.00,VWS V14.00,2013-06-09 18:07:00,
2013-06-09 11:12:00,73.2,61.2,29.75,SW,220,3.0,4.0,66,0.00,,CLR,0.00,VWS V14.00,2013-06-09 18:12:00,
2013-06-09 11:17:00,73.5,61.5,29.75,WNW,297,1.0,4.0,66,0.00,,CLR,0.00,VWS V14.00,2013-06-09 18:17:00,
2013-06-09 11:22:00,73.7,61.2,29.75,North,353,0.0,4.0,65,0.00,,CLR,0.00,VWS V14.00,2013-06-09 18:22:00,
2013-06-09 11:27:00,73.9,61.4,29.75,WSW,242,0.0,4.0,65,0.00,,CLR,0.00,VWS V14.00,2013-06-09 18:27:00,
2013-06-09 11:30:00,74.2,61.7,29.75,NNW,337,0.0,5.0,65,0.00,,CLR,0.00,VWS V14.00,2013-06-09 18:30:00,
2013-06-09 11:32:00,74.0,61.5,29.75,North,6,0.0,3.0,65,0.00,,CLR,0.00,VWS V14.00,2013-06-09 18:32:00,
2013-06-09 11:37:00,74.3,61.3,29.75,West,270,0.0,3.0,64,0.00,,CLR,0.00,VWS V14.00,2013-06-09 18:37:00,
2013-06-09 11:42:00,74.5,61.1,29.75,NNE,23,0.0,5.0,63,0.00,,CLR,0.00,VWS V14.00,2013-06-09 18:42:00,
2013-06-09 11:47:00,75.5,61.6,29.75,NNW,332,0.0,5.0,62,0.00,,CLR,0.00,VWS V14.00,2013-06-09 18:47:00,
2013-06-09 11:52:00,75.4,61.0,29.75,NW,326,0.0,5.0,61,0.00,,CLR,0.00,VWS V14.00,2013-06-09 18:52:00,
2013-06-09 11:57:00,75.8,61.4,29.74,NNW,331,1.0,5.0,61,0.00,,CLR,0.00,VWS V14.00,2013-06-09 18:57:00,
2013-06-09 12:00:00,75.8,61.4,29.75,North,4,0.0,8.0,61,0.00,,CLR,0.00,VWS V14.00,2013-06-09 19:00:00,
2013-06-09 12:02:00,76.0,61.6,29.75,SW,233,0.0,3.0,61,0.00,,CLR,0.00,VWS V14.00,2013-06-09 19:02:00,
2013-06-09 12:07:00,76.1,61.7,29.75,North,354,4.0,5.0,61,0.00,,CLR,0.00,VWS V14.00,2013-06-09 19:07:00,
2013-06-09 12:12:00,76.2,61.3,29.75,NNW,333,1.0,5.0,60,0.00,,CLR,0.00,VWS V14.00,2013-06-09 19:12:00,
2013-06-09 12:17:00,76.6,62.6,29.75,North,356,0.0,5.0,62,0.00,,CLR,0.00,VWS V14.00,2013-06-09 19:17:00,
2013-06-09 12:22:00,77.1,63.5,29.75,NNW,336,0.0,5.0,63,0.00,,CLR,0.00,VWS V14.00,2013-06-09 19:22:00,
2013-06-09 12:27:00,77.4,63.8,29.74,North,5,0.0,5.0,63,0.00,,CLR,0.00,VWS V14.00,2013-06-09 19:27:00,
2013-06-09 12:30:00,77.8,64.2,29.74,North,2,0.0,5.0,63,0.00,,CLR,0.00,VWS V14.00,2013-06-09 19:30:00,
2013-06-09 12:32:00,77.9,64.3,29.74,NW,324,1.0,1.0,63,0.00,,CLR,0.00,VWS V14.00,2013-06-09 19:32:00,
2013-06-09 12:37:00,77.9,63.4,29.75,NNE,22,4.0,6.0,61,0.00,,CLR,0.00,VWS V14.00,2013-06-09 19:37:00,
2013-06-09 12:42:00,78.2,63.2,29.75,North,357,3.0,11.0,60,0.00,,CLR,0.00,VWS V14.00,2013-06-09 19:42:00,
2013-06-09 12:47:00,78.4,64.8,29.75,North,2,6.0,11.0,63,0.00,,CLR,0.00,VWS V14.00,2013-06-09 19:47:00,
2013-06-09 12:52:00,78.4,63.8,29.74,NNW,344,1.0,11.0,61,0.00,,CLR,0.00,VWS V14.00,2013-06-09 19:52:00,
2013-06-09 12:57:00,78.9,64.3,29.75,North,350,2.0,11.0,61,0.00,,CLR,0.00,VWS V14.00,2013-06-09 19:57:00,
2013-06-09 13:00:00,78.8,64.2,29.74,North,356,3.0,11.0,61,0.00,,CLR,0.00,VWS V14.00,2013-06-09 20:00:00,
2013-06-09 13:02:00,79.3,64.2,29.74,WNW,291,0.0,4.0,60,0.00,,CLR,0.00,VWS V14.00,2013-06-09 20:02:00,
2013-06-09 13:07:00,79.3,64.2,29.74,NNW,348,2.0,7.0,60,0.00,,CLR,0.00,VWS V14.00,2013-06-09 20:07:00,
2013-06-09 13:12:00,79.6,64.0,29.74,North,0,4.0,7.0,59,0.00,,CLR,0.00,VWS V14.00,2013-06-09 20:12:00,
2013-06-09 13:17:00,79.3,64.2,29.74,North,2,0.0,7.0,60,0.00,,CLR,0.00,VWS V14.00,2013-06-09 20:17:00,
2013-06-09 13:22:00,79.5,64.4,29.74,NNW,346,1.0,7.0,60,0.00,,CLR,0.00,VWS V14.00,2013-06-09 20:22:00,
2013-06-09 13:27:00,79.9,64.3,29.73,NNW,343,0.0,8.0,59,0.00,,CLR,0.00,VWS V14.00,2013-06-09 20:27:00,
2013-06-09 13:30:00,79.9,64.3,29.74,North,6,3.0,8.0,59,0.00,,CLR,0.00,VWS V14.00,2013-06-09 20:30:00,
2013-06-09 13:32:00,79.9,63.8,29.73,NNW,342,3.0,3.0,58,0.00,,CLR,0.00,VWS V14.00,2013-06-09 20:32:00,
2013-06-09 13:37:00,80.1,64.0,29.74,North,353,0.0,6.0,58,0.00,,CLR,0.00,VWS V14.00,2013-06-09 20:37:00,
2013-06-09 13:42:00,80.0,63.9,29.74,North,3,4.0,6.0,58,0.00,,CLR,0.00,VWS V14.00,2013-06-09 20:42:00,
2013-06-09 13:47:00,80.1,64.0,29.74,NNW,336,2.0,11.0,58,0.00,,CLR,0.00,VWS V14.00,2013-06-09 20:47:00,
2013-06-09 13:52:00,80.4,64.3,29.73,NW,326,0.0,11.0,58,0.00,,CLR,0.00,VWS V14.00,2013-06-09 20:52:00,
2013-06-09 13:57:00,80.0,63.9,29.73,WSW,242,1.0,11.0,58,0.00,,CLR,0.00,VWS V14.00,2013-06-09 20:57:00,
2013-06-09 14:00:00,80.3,63.7,29.73,WNW,293,2.0,11.0,57,0.00,,CLR,0.00,VWS V14.00,2013-06-09 21:00:00,
2013-06-09 14:02:00,80.2,63.6,29.74,NNW,330,1.0,6.0,57,0.00,,CLR,0.00,VWS V14.00,2013-06-09 21:02:00,
2013-06-09 14:07:00,80.1,63.5,29.74,NNW,330,4.0,7.0,57,0.00,,CLR,0.00,VWS V14.00,2013-06-09 21:07:00,
2013-06-09 14:12:00,80.1,63.5,29.74,NNW,334,1.0,7.0,57,0.00,,CLR,0.00,VWS V14.00,2013-06-09 21:12:00,
2013-06-09 14:17:00,79.7,63.1,29.73,NNE,19,0.0,7.0,57,0.00,,CLR,0.00,VWS V14.00,2013-06-09 21:17:00,
2013-06-09 14:22:00,79.0,62.5,29.73,NNW,329,0.0,10.0,57,0.00,,CLR,0.00,VWS V14.00,2013-06-09 21:22:00,
2013-06-09 14:27:00,78.4,62.4,29.74,WNW,295,1.0,10.0,58,0.00,,CLR,0.00,VWS V14.00,2013-06-09 21:27:00,
2013-06-09 14:30:00,78.6,63.1,29.73,NNW,346,0.0,10.0,59,0.00,,CLR,0.00,VWS V14.00,2013-06-09 21:30:00,
2013-06-09 14:32:00,78.5,63.0,29.73,NW,309,1.0,8.0,59,0.00,,CLR,0.00,VWS V14.00,2013-06-09 21:32:00,
2013-06-09 14:37:00,78.6,63.1,29.74,WNW,303,2.0,8.0,59,0.00,,CLR,0.00,VWS V14.00,2013-06-09 21:37:00,
2013-06-09 14:42:00,79.1,63.1,29.73,NNW,344,2.0,8.0,58,0.00,,CLR,0.00,VWS V14.00,2013-06-09 21:42:00,
2013-06-09 14:47:00,78.7,63.2,29.74,WNW,287,4.0,8.0,59,0.00,,CLR,0.00,VWS V14.00,2013-06-09 21:47:00,
2013-06-09 14:52:00,78.4,62.9,29.73,West,265,0.0,8.0,59,0.00,,CLR,0.00,VWS V14.00,2013-06-09 21:52:00,
2013-06-09 14:57:00,78.1,62.6,29.74,North,359,0.0,8.0,59,0.00,,CLR,0.00,VWS V14.00,2013-06-09 21:57:00,
2013-06-09 15:00:00,78.0,62.5,29.74,NW,311,8.0,8.0,59,0.00,,CLR,0.00,VWS V14.00,2013-06-09 22:00:00,
2013-06-09 15:02:00,77.6,62.2,29.73,NNW,341,2.0,8.0,59,0.00,,CLR,0.00,VWS V14.00,2013-06-09 22:02:00,
2013-06-09 15:07:00,77.3,62.3,29.73,NNW,343,6.0,8.0,60,0.00,,CLR,0.00,VWS V14.00,2013-06-09 22:07:00,
2013-06-09 15:12:00,76.6,62.2,29.74,NW,318,3.0,8.0,61,0.00,,CLR,0.00,VWS V14.00,2013-06-09 22:12:00,
2013-06-09 15:17:00,76.1,61.7,29.73,NW,310,0.0,8.0,61,0.00,,CLR,0.00,VWS V14.00,2013-06-09 22:17:00,
2013-06-09 15:22:00,75.8,61.4,29.74,North,5,0.0,8.0,61,0.00,,CLR,0.00,VWS V14.00,2013-06-09 22:22:00,
2013-06-09 15:27:00,75.7,61.8,29.74,NW,310,1.0,11.0,62,0.00,,CLR,0.00,VWS V14.00,2013-06-09 22:27:00,
2013-06-09 15:30:00,75.8,61.9,29.74,ENE,71,2.0,11.0,62,0.00,,CLR,0.00,VWS V14.00,2013-06-09 22:30:00,
2013-06-09 15:32:00,75.3,61.4,29.74,NNW,343,1.0,6.0,62,0.00,,CLR,0.00,VWS V14.00,2013-06-09 22:32:00,
2013-06-09 15:37:00,75.4,61.5,29.74,North,350,1.0,6.0,62,0.00,,CLR,0.00,VWS V14.00,2013-06-09 22:37:00,
2013-06-09 15:42:00,75.4,61.5,29.73,NNW,334,0.0,7.0,62,0.00,,CLR,0.00,VWS V14.00,2013-06-09 22:42:00,
2013-06-09 15:47:00,75.6,61.7,29.75,NW,317,0.0,7.0,62,0.00,,CLR,0.00,VWS V14.00,2013-06-09 22:47:00,
2013-06-09 15:52:00,75.1,61.2,29.74,North,0,0.0,7.0,62,0.00,,CLR,0.00,VWS V14.00,2013-06-09 22:52:00,
2013-06-09 15:57:00,75.2,61.8,29.75,WNW,292,0.0,7.0,63,0.00,,CLR,0.00,VWS V14.00,2013-06-09 22:57:00,
2013-06-09 16:00:00,75.1,61.2,29.75,NNW,337,1.0,8.0,62,0.00,,CLR,0.00,VWS V14.00,2013-06-09 23:00:00,
2013-06-09 16:02:00,74.9,61.5,29.75,WNW,285,3.0,4.0,63,0.00,,CLR,0.00,VWS V14.00,2013-06-09 23:02:00,
2013-06-09 16:07:00,75.0,61.6,29.75,SW,226,4.0,7.0,63,0.00,,CLR,0.00,VWS V14.00,2013-06-09 23:07:00,
2013-06-09 16:12:00,75.1,61.2,29.75,North,353,0.0,7.0,62,0.00,,CLR,0.00,VWS V14.00,2013-06-09 23:12:00,
2013-06-09 16:17:00,74.5,60.6,29.75,NNW,337,4.0,7.0,62,0.00,,CLR,0.00,VWS V14.00,2013-06-09 23:17:00,
2013-06-09 16:22:00,74.7,61.3,29.75,NNE,13,0.0,7.0,63,0.00,,CLR,0.00,VWS V14.00,2013-06-09 23:22:00,
2013-06-09 16:27:00,74.2,60.8,29.75,ENE,66,1.0,7.0,63,0.00,,CLR,0.00,VWS V14.00,2013-06-09 23:27:00,
2013-06-09 16:30:00,74.1,60.7,29.75,NNW,343,2.0,8.0,63,0.00,,CLR,0.00,VWS V14.00,2013-06-09 23:30:00,
2013-06-09 16:32:00,73.5,60.2,29.74,NNW,347,2.0,6.0,63,0.00,,CLR,0.00,VWS V14.00,2013-06-09 23:32:00,
2013-06-09 16:37:00,73.2,60.3,29.75,NE,52,4.0,7.0,64,0.00,,CLR,0.00,VWS V14.00,2013-06-09 23:37:00,
2013-06-09 16:42:00,72.9,60.5,29.74,North,0,1.0,7.0,65,0.00,,CLR,0.00,VWS V14.00,2013-06-09 23:42:00,
2013-06-09 16:47:00,73.1,60.2,29.75,NE,44,1.0,10.0,64,0.00,,CLR,0.00,VWS V14.00,2013-06-09 23:47:00,
2013-06-09 16:52:00,73.3,60.8,29.75,NE,47,1.0,10.0,65,0.00,,CLR,0.00,VWS V14.00,2013-06-09 23:52:00,
2013-06-09 16:57:00,73.0,60.1,29.75,NW,321,1.0,10.0,64,0.00,,CLR,0.00,VWS V14.00,2013-06-09 23:57:00,
2013-06-09 17:00:00,73.1,60.2,29.75,WNW,298,2.0,10.0,64,0.00,,CLR,0.00,VWS V14.00,2013-06-10 00:00:00,
2013-06-09 17:02:00,72.6,59.7,29.75,NNW,344,0.0,4.0,64,0.00,,CLR,0.00,VWS V14.00,2013-06-10 00:02:00,
2013-06-09 17:07:00,72.8,59.9,29.75,North,359,0.0,5.0,64,0.00,,CLR,0.00,VWS V14.00,2013-06-10 00:07:00,
2013-06-09 17:12:00,72.7,60.3,29.75,NW,325,0.0,7.0,65,0.00,,CLR,0.00,VWS V14.00,2013-06-10 00:12:00,
2013-06-09 17:17:00,72.5,60.1,29.74,North,349,3.0,7.0,65,0.00,,CLR,0.00,VWS V14.00,2013-06-10 00:17:00,
2013-06-09 17:22:00,72.7,60.3,29.75,North,359,0.0,7.0,65,0.00,,CLR,0.00,VWS V14.00,2013-06-10 00:22:00,
2013-06-09 17:27:00,72.9,60.0,29.75,NW,324,0.0,7.0,64,0.00,,CLR,0.00,VWS V14.00,2013-06-10 00:27:00,
2013-06-09 17:30:00,72.6,60.2,29.74,NW,317,0.0,7.0,65,0.00,,CLR,0.00,VWS V14.00,2013-06-10 00:30:00,
2013-06-09 17:32:00,72.7,60.3,29.75,NNW,335,5.0,6.0,65,0.00,,CLR,0.00,VWS V14.00,2013-06-10 00:32:00,
2013-06-09 17:37:00,72.1,59.7,29.75,NW,309,3.0,6.0,65,0.00,,CLR,0.00,VWS V14.00,2013-06-10 00:37:00,
2013-06-09 17:42:00,71.6,59.7,29.75,WNW,303,0.0,6.0,66,0.00,,CLR,0.00,VWS V14.00,2013-06-10 00:42:00,
2013-06-09 17:47:00,71.7,59.3,29.75,North,6,1.0,9.0,65,0.00,,CLR,0.00,VWS V14.00,2013-06-10 00:47:00,
2013-06-09 17:52:00,71.4,59.0,29.74,WNW,298,2.0,9.0,65,0.00,,CLR,0.00,VWS V14.00,2013-06-10 00:52:00,
2013-06-09 17:57:00,71.0,58.7,29.75,NNW,333,0.0,9.0,65,0.00,,CLR,0.00,VWS V14.00,2013-06-10 00:57:00,
2013-06-09 18:00:00,70.7,58.8,29.75,North,356,0.0,9.0,66,0.00,,CLR,0.00,VWS V14.00,2013-06-10 01:00:00,
2013-06-09 18:02:00,70.6,59.1,29.75,NNW,335,0.0,4.0,67,0.00,,CLR,0.00,VWS V14.00,2013-06-10 01:02:00,
2013-06-09 18:07:00,70.2,59.6,29.74,NNW,336,0.0,4.0,69,0.00,,CLR,0.00,VWS V14.00,2013-06-10 01:07:00,
2013-06-09 18:12:00,69.9,59.3,29.74,NNW,347,0.0,6.0,69,0.00,,CLR,0.00,VWS V14.00,2013-06-10 01:12:00,
2013-06-09 18:17:00,70.1,59.5,29.74,SSE,161,0.0,6.0,69,0.00,,CLR,0.00,VWS V14.00,2013-06-10 01:17:00,
2013-06-09 18:22:00,69.8,59.2,29.74,SSW,211,0.0,7.0,69,0.00,,CLR,0.00,VWS V14.00,2013-06-10 01:22:00,
2013-06-09 18:27:00,69.8,59.2,29.74,NNW,328,1.0,7.0,69,0.00,,CLR,0.00,VWS V14.00,2013-06-10 01:27:00,
2013-06-09 18:30:00,69.8,59.2,29.74,NNW,348,0.0,7.0,69,0.00,,CLR,0.00,VWS V14.00,2013-06-10 01:30:00,
2013-06-09 18:32:00,69.8,59.2,29.74,NNW,343,0.0,2.0,69,0.00,,CLR,0.00,VWS V14.00,2013-06-10 01:32:00,
2013-06-09 18:37:00,69.7,59.1,29.74,North,9,0.0,2.0,69,0.00,,CLR,0.00,VWS V14.00,2013-06-10 01:37:00,
2013-06-09 18:42:00,69.2,58.6,29.74,SSW,207,1.0,2.0,69,0.00,,CLR,0.00,VWS V14.00,2013-06-10 01:42:00,
2013-06-09 18:47:00,68.7,58.1,29.74,NNW,331,0.0,5.0,69,0.00,,CLR,0.00,VWS V14.00,2013-06-10 01:47:00,
2013-06-09 18:52:00,68.3,58.2,29.74,NNW,332,0.0,5.0,70,0.00,,CLR,0.00,VWS V14.00,2013-06-10 01:52:00,
2013-06-09 18:57:00,68.5,57.9,29.75,West,265,0.0,6.0,69,0.00,,CLR,0.00,VWS V14.00,2013-06-10 01:57:00,
2013-06-09 19:00:00,68.2,58.0,29.75,NNW,330,1.0,6.0,70,0.00,,CLR,0.00,VWS V14.00,2013-06-10 02:00:00,
2013-06-09 19:02:00,68.2,58.0,29.74,NNW,341,0.0,3.0,70,0.00,,CLR,0.00,VWS V14.00,2013-06-10 02:02:00,
2013-06-09 19:07:00,67.8,58.1,29.74,North,359,0.0,5.0,71,0.00,,CLR,0.00,VWS V14.00,2013-06-10 02:07:00,
2013-06-09 19:12:00,67.6,57.5,29.75,NNW,335,2.0,5.0,70,0.00,,CLR,0.00,VWS V14.00,2013-06-10 02:12:00,
2013-06-09 19:17:00,66.9,57.2,29.75,North,350,4.0,5.0,71,0.00,,CLR,0.00,VWS V14.00,2013-06-10 02:17:00,
2013-06-09 19:22:00,66.6,57.3,29.75,West,275,0.0,10.0,72,0.00,,CLR,0.00,VWS V14.00,2013-06-10 02:22:00,
2013-06-09 19:27:00,66.1,56.8,29.76,North,6,0.0,10.0,72,0.00,,CLR,0.00,VWS V14.00,2013-06-10 02:27:00,
2013-06-09 19:30:00,66.1,57.2,29.76,North,357,0.0,10.0,73,0.00,,CLR,0.00,VWS V14.00,2013-06-10 02:30:00,
2013-06-09 19:32:00,66.1,57.2,29.75,North,354,0.0,1.0,73,0.00,,CLR,0.00,VWS V14.00,2013-06-10 02:32:00,
2013-06-09 19:37:00,65.9,57.4,29.75,NNW,339,1.0,5.0,74,0.00,,CLR,0.00,VWS V14.00,2013-06-10 02:37:00,
2013-06-09 19:42:00,65.5,57.7,29.76,North,350,0.0,5.0,76,0.00,,CLR,0.00,VWS V14.00,2013-06-10 02:42:00,
2013-06-09 19:47:00,65.3,57.9,29.76,North,0,0.0,5.0,77,0.00,,CLR,0.00,VWS V14.00,2013-06-10 02:47:00,
2013-06-09 19:52:00,64.8,57.4,29.76,North,354,0.0,5.0,77,0.00,,CLR,0.00,VWS V14.00,2013-06-10 02:52:00,
2013-06-09 19:57:00,64.5,57.5,29.75,North,8,2.0,5.0,78,0.00,,CLR,0.00,VWS V14.00,2013-06-10 02:57:00,
2013-06-09 20:00:00,64.4,57.4,29.76,North,0,0.0,5.0,78,0.00,,CLR,0.00,VWS V14.00,2013-06-10 03:00:00,
2013-06-09 20:02:00,64.5,57.5,29.76,North,0,0.0,1.0,78,0.00,,CLR,0.00,VWS V14.00,2013-06-10 03:02:00,
2013-06-09 20:07:00,64.6,57.6,29.76,North,350,0.0,1.0,78,0.00,,CLR,0.00,VWS V14.00,2013-06-10 03:07:00,
2013-06-09 20:12:00,64.2,57.6,29.76,NNW,346,0.0,4.0,79,0.00,,CLR,0.00,VWS V14.00,2013-06-10 03:12:00,
2013-06-09 20:17:00,64.1,57.5,29.76,SW,216,0.0,4.0,79,0.00,,CLR,0.00,VWS V14.00,2013-06-10 03:17:00,
2013-06-09 20:22:00,63.9,57.3,29.76,North,358,0.0,5.0,79,0.00,,CLR,0.00,VWS V14.00,2013-06-10 03:22:00,
2013-06-09 20:27:00,63.5,56.5,29.76,North,350,1.0,5.0,78,0.00,,CLR,0.00,VWS V14.00,2013-06-10 03:27:00,
2013-06-09 20:30:00,63.5,56.5,29.76,NNW,345,0.0,5.0,78,0.00,,CLR,0.00,VWS V14.00,2013-06-10 03:30:00,
2013-06-09 20:32:00,63.1,56.1,29.76,SW,218,0.0,4.0,78,0.00,,CLR,0.00,VWS V14.00,2013-06-10 03:32:00,
2013-06-09 20:37:00,62.7,56.5,29.76,North,0,0.0,4.0,80,0.00,,CLR,0.00,VWS V14.00,2013-06-10 03:37:00,
2013-06-09 20:42:00,62.9,56.6,29.76,WNW,300,0.0,8.0,80,0.00,,CLR,0.00,VWS V14.00,2013-06-10 03:42:00,
2013-06-09 20:47:00,62.3,56.1,29.76,North,350,0.0,8.0,80,0.00,,CLR,0.00,VWS V14.00,2013-06-10 03:47:00,
2013-06-09 20:52:00,62.4,56.2,29.76,North,0,1.0,8.0,80,0.00,,CLR,0.00,VWS V14.00,2013-06-10 03:52:00,
2013-06-09 20:57:00,62.2,56.0,29.76,SSW,211,0.0,8.0,80,0.00,,CLR,0.00,VWS V14.00,2013-06-10 03:57:00,
2013-06-09 21:00:00,62.3,56.1,29.76,West,265,2.0,8.0,80,0.00,,CLR,0.00,VWS V14.00,2013-06-10 04:00:00,
2013-06-09 21:01:00,62.3,56.4,29.76,NW,320,0.0,2.0,81,0.00,,CLR,0.00,VWS V14.00,2013-06-10 04:01:00,
2013-06-09 21:02:00,62.4,56.5,29.77,NNW,333,0.0,2.0,81,0.00,,CLR,0.00,VWS V14.00,2013-06-10 04:02:00,
2013-06-09 21:07:00,62.1,56.5,29.76,NW,325,0.0,2.0,82,0.00,,CLR,0.00,VWS V14.00,2013-06-10 04:07:00,
2013-06-09 21:12:00,61.9,56.3,29.76,NNW,331,0.0,2.0,82,0.00,,CLR,0.00,VWS V14.00,2013-06-10 04:12:00,
2013-06-09 21:17:00,62.2,56.6,29.76,North,356,0.0,2.0,82,0.00,,CLR,0.00,VWS V14.00,2013-06-10 04:17:00,
2013-06-09 21:22:00,62.0,56.5,29.77,West,275,0.0,5.0,82,0.00,,CLR,0.00,VWS V14.00,2013-06-10 04:22:00,
2013-06-09 21:27:00,61.8,56.2,29.76,North,9,1.0,5.0,82,0.00,,CLR,0.00,VWS V14.00,2013-06-10 04:27:00,
2013-06-09 21:30:00,61.7,56.2,29.76,SW,223,0.0,5.0,82,0.00,,CLR,0.00,VWS V14.00,2013-06-10 04:30:00,
2013-06-09 21:32:00,61.6,56.1,29.76,NNW,348,0.0,6.0,82,0.00,,CLR,0.00,VWS V14.00,2013-06-10 04:32:00,
2013-06-09 21:37:00,61.3,55.8,29.76,NW,320,3.0,6.0,82,0.00,,CLR,0.00,VWS V14.00,2013-06-10 04:37:00,
2013-06-09 21:42:00,61.2,56.3,29.76,West,273,0.0,7.0,84,0.00,,CLR,0.00,VWS V14.00,2013-06-10 04:42:00,
2013-06-09 21:47:00,61.4,56.2,29.77,North,353,0.0,7.0,83,0.00,,CLR,0.00,VWS V14.00,2013-06-10 04:47:00,
2013-06-09 21:52:00,61.3,56.4,29.76,NNW,348,0.0,7.0,84,0.00,,CLR,0.00,VWS V14.00,2013-06-10 04:52:00,
2013-06-09 21:57:00,61.1,56.2,29.77,NNW,328,0.0,7.0,84,0.00,,CLR,0.00,VWS V14.00,2013-06-10 04:57:00,
2013-06-09 22:00:00,61.2,56.3,29.77,NNW,327,0.0,7.0,84,0.00,,CLR,0.00,VWS V14.00,2013-06-10 05:00:00,
2013-06-09 22:02:00,61.1,56.6,29.77,NNW,329,0.0,0.0,85,0.00,,CLR,0.00,VWS V14.00,2013-06-10 05:02:00,
2013-06-09 22:07:00,61.2,56.7,29.76,NNW,333,1.0,1.0,85,0.00,,CLR,0.00,VWS V14.00,2013-06-10 05:07:00,
2013-06-09 22:12:00,61.2,56.7,29.76,NNW,338,0.0,1.0,85,0.00,,CLR,0.00,VWS V14.00,2013-06-10 05:12:00,
2013-06-09 22:17:00,60.9,56.0,29.77,NNW,339,0.0,1.0,84,0.00,,CLR,0.00,VWS V14.00,2013-06-10 05:17:00,
2013-06-09 22:22:00,61.0,56.1,29.77,NNW,338,0.0,1.0,84,0.00,,CLR,0.00,VWS V14.00,2013-06-10 05:22:00,
2013-06-09 22:27:00,61.1,56.2,29.77,NW,316,0.0,2.0,84,0.00,,CLR,0.00,VWS V14.00,2013-06-10 05:27:00,
2013-06-09 22:30:00,60.9,55.7,29.77,NNE,25,0.0,2.0,83,0.00,,CLR,0.00,VWS V14.00,2013-06-10 05:30:00,
2013-06-09 22:32:00,60.9,55.7,29.77,NNE,29,0.0,1.0,83,0.00,,CLR,0.00,VWS V14.00,2013-06-10 05:32:00,
2013-06-09 22:37:00,60.6,55.4,29.77,NNE,16,0.0,1.0,83,0.00,,CLR,0.00,VWS V14.00,2013-06-10 05:37:00,
2013-06-09 22:42:00,60.7,55.5,29.77,North,1,0.0,1.0,83,0.00,,CLR,0.00,VWS V14.00,2013-06-10 05:42:00,
2013-06-09 22:47:00,60.7,55.2,29.77,NNW,328,0.0,3.0,82,0.00,,CLR,0.00,VWS V14.00,2013-06-10 05:47:00,
2013-06-09 22:52:00,60.5,55.3,29.78,North,358,0.0,4.0,83,0.00,,CLR,0.00,VWS V14.00,2013-06-10 05:52:00,
2013-06-09 22:57:00,60.6,55.4,29.78,South,169,0.0,4.0,83,0.00,,CLR,0.00,VWS V14.00,2013-06-10 05:57:00,
2013-06-09 23:00:00,60.6,55.4,29.78,SSW,203,0.0,4.0,83,0.00,,CLR,0.00,VWS V14.00,2013-06-10 06:00:00,
2013-06-09 23:02:00,60.7,55.5,29.79,West,271,0.0,1.0,83,0.00,,CLR,0.00,VWS V14.00,2013-06-10 06:02:00,
2013-06-09 23:07:00,60.5,55.3,29.78,North,0,0.0,1.0,83,0.00,,CLR,0.00,VWS V14.00,2013-06-10 06:07:00,
2013-06-09 23:12:00,60.4,55.2,29.79,NNE,30,0.0,2.0,83,0.00,,CLR,0.00,VWS V14.00,2013-06-10 06:12:00,
2013-06-09 23:17:00,60.3,55.1,29.78,NNE,17,0.0,2.0,83,0.00,,CLR,0.00,VWS V14.00,2013-06-10 06:17:00,
2013-06-09 23:22:00,60.5,55.3,29.78,North,0,0.0,2.0,83,0.00,,CLR,0.00,VWS V14.00,2013-06-10 06:22:00,
2013-06-09 23:27:00,60.2,55.0,29.77,NNW,343,0.0,2.0,83,0.00,,CLR,0.00,VWS V14.00,2013-06-10 06:27:00,
2013-06-09 23:30:00,60.2,55.0,29.78,North,3,0.0,2.0,83,0.00,,CLR,0.00,VWS V14.00,2013-06-10 06:30:00,
2013-06-09 23:32:00,60.4,55.2,29.78,North,2,0.0,0.0,83,0.00,,CLR,0.00,VWS V14.00,2013-06-10 06:32:00,
2013-06-09 23:37:00,60.6,55.4,29.78,SW,215,0.0,2.0,83,0.00,,CLR,0.00,VWS V14.00,2013-06-10 06:37:00,
2013-06-09 23:42:00,60.1,54.9,29.77,West,267,1.0,2.0,83,0.00,,CLR,0.00,VWS V14.00,2013-06-10 06:42:00,
2013-06-09 23:47:00,60.3,55.1,29.77,SSW,213,0.0,3.0,83,0.00,,CLR,0.00,VWS V14.00,2013-06-10 06:47:00,
2013-06-09 23:52:00,60.4,55.2,29.78,SE,144,0.0,3.0,83,0.00,,CLR,0.00,VWS V14.00,2013-06-10 06:52:00,
2013-06-09 23:57:00,60.0,54.8,29.78,NNW,338,0.0,3.0,83,0.00,,CLR,0.00,VWS V14.00,2013-06-10 06:57:00,